User: anonymous   Login
Location: Unspecified
(0.0000°N, 0.0000°E)
Time: 08:52:23
(UTC+00:00)
Language:

AMOS 1 - Orbit

View from above orbital plane
View from above orbital plane
View from above satellite
View from above satellite

Ground track
Ground track

The orbit data is extracted from the following two-line orbital elements,

1 23865U 96030B   18111.92177126 -.00000059 +00000-0 +00000-0 0  9994
2 23865 007.5784 052.2348 0004817 137.4390 057.0353 00.97116675079650
Epoch (UTC): 21 April 2018 22:07:21
Eccentricity: 0.0004817
inclination: 7.5784°
perigee height: 36674 km
apogee height: 36715 km
right ascension of ascending node: 52.2348°
argument of perigee: 137.4390°
revolutions per day: 0.97116675
mean anomaly at epoch: 57.0353°
orbit number at epoch: 7965

The dashed part of the orbit path shows where the satellite is in the earth's shadow,  

DLR